AD4WX-13 Weather Reports


time (UTC)temp
F
wind
direction
speed
knots
gust
knots
rain 1hr
in
rain 24hr
in
rain mn
in
humidity
%
barometer
mb
20260906105409 74 80 0.0 0.0 0.00 0.02 0.02 91 1011.6
20260906104344 74 140 0.0 3.5 0.00 0.02 0.02 91 1011.6
20260906102155 75 140 0.0 0.9 0.00 0.02 0.02 91 1011.2
20260906095937 75 50 0.0 0.0 0.00 0.01 0.01 91 1011.1
20260906094925 76 50 0.0 0.0 0.00 0.01 0.01 91 1011.0
20260906093907 76 50 0.0 0.0 0.00 0.01 0.01 90 1011.0
20260906092844 77 50 0.0 0.0 0.00 0.01 0.01 89 1011.2
20260906091858 77 50 0.0 0.0 0.00 0.00 0.00 88 1011.4
20260906090850 78 50 0.0 0.0 0.00 0.00 0.00 87 1011.4
20260906085849 77 157 0.0 0.0 0.00 0.00 0.00 87 1011.3
20260906084833 77 150 0.0 2.6 0.00 0.00 0.00 88 1011.4
20260906083841 77 323 0.0 2.6 0.00 0.00 0.00 89 1011.2
20260906081742 76 291 0.0 2.6 0.00 0.00 0.00 91 1010.7
20260906080714 75 16 0.0 5.2 0.00 0.00 0.00 90 1010.5
20260906075655 75 241 0.0 5.2 0.00 0.00 0.00 90 1010.2
20260906074627 75 298 0.0 0.0 0.00 0.00 0.00 90 1009.7
20260906073647 75 298 0.0 0.0 0.00 0.00 0.00 91 1009.6
20260906072632 75 298 0.0 0.0 0.00 0.00 0.00 91 1009.5
20260906071630 75 298 0.0 0.0 0.00 0.00 0.00 90 1009.7
20260906070613 75 298 0.0 0.0 0.00 0.00 0.00 91 1009.8
20260906064430 75 298 0.0 0.0 0.00 0.00 0.00 91 1009.7
20260906063400 75 298 0.0 0.0 0.00 0.00 0.00 91 1009.7
20260906062356 75 298 0.0 0.0 0.00 0.00 0.00 91 1009.7
20260906061400 75 298 0.0 0.0 0.00 0.00 0.00 91 1009.7
20260906060354 75 298 0.0 0.0 0.00 0.00 0.00 91 1009.9
20260906055409 75 298 0.0 0.0 0.00 0.00 0.00 91 1009.9
20260906054410 75 298 0.0 0.0 0.00 0.00 0.00 90 1009.9
20260906053405 75 298 0.0 0.0 0.00 0.00 0.00 91 1009.9
20260906052413 76 298 0.0 0.0 0.00 0.00 0.00 91 1009.9
20260906051401 76 298 0.0 0.0 0.00 0.00 0.00 90 1010.0
20260906050332 76 298 0.0 0.0 0.00 0.00 0.00 90 1010.1
20260906045339 76 298 0.0 0.0 0.00 0.00 0.00 90 1010.2
20260906044347 76 298 0.0 0.0 0.00 0.00 0.00 90 1010.2
20260906043320 76 298 0.0 0.0 0.00 0.00 0.00 90 1010.2
20260906041157 76 298 0.0 0.0 0.00 0.00 0.00 89 1010.3
20260906040221 76 298 0.0 0.0 0.00 0.00 0.00 89 1010.4
20260906035242 77 298 0.0 0.0 0.00 0.00 0.00 89 1010.3
20260906034258 77 298 0.0 0.0 0.00 0.00 0.00 89 1010.3
20260906033228 77 298 0.0 0.0 0.00 0.00 0.00 88 1010.3
20260906032235 77 298 0.0 0.0 0.00 0.00 0.00 88 1010.1
20260906031215 77 298 0.0 0.0 0.00 0.00 0.00 87 1010.1
20260906030203 78 298 0.0 0.0 0.00 0.00 0.00 87 1009.9
20260906025148 78 298 0.0 0.0 0.00 0.00 0.00 86 1009.7
20260906024141 78 298 0.0 0.0 0.00 0.00 0.00 86 1009.6
20260906023111 79 298 0.0 0.0 0.00 0.00 0.00 85 1009.5
20260906022123 79 298 0.0 0.0 0.00 0.00 0.00 84 1009.5
20260906021109 79 298 0.0 0.0 0.00 0.00 0.00 83 1009.5
20260906014935 80 298 0.0 0.0 0.00 0.00 0.00 82 1009.5
20260906013908 81 298 0.0 0.0 0.00 0.00 0.00 81 1009.5
20260906012846 81 298 0.0 0.0 0.00 0.00 0.00 80 1009.4
20260906011829 82 298 0.0 0.0 0.00 0.00 0.00 79 1009.3
20260906010830 82 298 0.0 0.0 0.00 0.00 0.00 78 1009.2
20260906005823 83 298 0.0 0.0 0.00 0.00 0.00 77 1009.1
20260906003640 85 298 0.0 0.0 0.00 0.00 0.00 74 1008.9
20260906002631 86 298 0.0 0.0 0.00 0.00 0.00 71 1008.9
20260906001608 87 298 0.0 0.0 0.00 0.00 0.00 70 1009.0
20260906000625 88 298 0.0 0.0 0.00 0.00 0.00 67 1009.0
20260905235639 89 298 0.0 0.0 0.00 0.00 0.00 66 1009.1
20260905232410 93 298 0.0 0.0 0.00 0.00 0.00 57 1009.2
20260905231352 95 300 0.0 0.0 0.00 0.00 0.00 51 1009.1
20260905225243 96 295 0.0 0.0 0.00 0.00 0.00 48 1009.0
20260905224216 97 336 0.0 0.9 0.00 0.00 0.00 49 1008.9
20260905223210 97 346 0.0 0.0 0.00 0.00 0.00 47 1009.1
20260905222213 97 150 0.0 2.6 0.00 0.00 0.00 45 1009.0
20260905221227 97 24 0.0 2.6 0.00 0.00 0.00 43 1009.1
20260905220227 98 28 0.0 4.3 0.00 0.00 0.00 43 1009.2
20260905214032 99 211 0.0 4.3 0.00 0.00 0.00 43 1009.2
20260905213050 99 98 0.0 3.5 0.00 0.00 0.00 43 1009.2
20260905212059 98 34 0.9 6.1 0.00 0.00 0.00 44 1009.3
20260905211119 99 31 0.9 6.1 0.00 0.00 0.00 44 1009.2
20260905210114 100 40 0.0 4.3 0.00 0.00 0.00 44 1009.3
20260905205056 100 10 0.0 4.3 0.00 0.00 0.00 44 1009.6
20260905204045 100 144 0.0 2.6 0.00 0.00 0.00 42 1009.7
20260905203037 99 19 0.0 2.6 0.00 0.00 0.00 44 1009.8
20260905200927 99 263 0.0 6.1 0.00 0.00 0.00 43 1010.0
20260905194720 100 211 0.0 0.0 0.00 0.00 0.00 40 1010.4
20260905193744 100 102 0.9 7.0 0.00 0.00 0.00 38 1010.6
20260905192727 100 21 0.0 6.1 0.00 0.00 0.00 39 1010.6
20260905191659 99 353 0.9 7.0 0.00 0.00 0.00 42 1010.9
20260905190629 99 31 0.0 3.5 0.00 0.00 0.00 41 1011.1
20260905184453 101 315 0.0 5.2 0.00 0.00 0.00 41 1011.4
20260905183452 100 184 0.0 6.1 0.00 0.00 0.00 43 1011.5
20260905182426 99 272 0.0 5.2 0.00 0.00 0.00 45 1011.6
20260905181419 98 32 0.0 5.2 0.00 0.00 0.00 47 1011.6
20260905180442 97 339 1.7 7.0 0.00 0.00 0.00 47 1011.7
20260905175432 98 11 0.9 7.0 0.00 0.00 0.00 48 1011.7
20260905174436 99 11 0.0 2.6 0.00 0.00 0.00 50 1011.7
20260905173409 97 113 0.0 4.3 0.00 0.00 0.00 51 1011.8
20260905172420 97 73 0.0 4.3 0.00 0.00 0.00 51 1012.0
20260905170311 96 305 0.0 3.5 0.00 0.00 0.00 54 1012.3
20260905165313 95 82 0.9 3.5 0.00 0.00 0.00 54 1012.3
20260905160740 93 15 0.0 0.9 0.00 0.00 0.00 61 1013.0
20260905155741 91 123 0.0 0.0 0.00 0.00 0.00 65 1013.0
20260905154804 89 150 0.0 0.9 0.00 0.00 0.00 67 1013.1
20260905153816 90 132 0.0 0.9 0.00 0.00 0.00 67 1013.0
20260905152811 90 125 0.0 0.9 0.00 0.00 0.00 66 1013.1
20260905150710 89 19 0.0 0.0 0.00 0.00 0.00 69 1013.2
20260905145654 88 19 0.0 0.0 0.00 0.00 0.00 68 1013.1
20260905144650 87 325 0.0 0.9 0.00 0.00 0.00 71 1013.1
20260905143710 85 62 0.0 0.0 0.00 0.00 0.00 77 1013.2
20260905142705 84 96 0.0 0.0 0.00 0.00 0.00 80 1013.3
20260905141647 83 96 0.0 0.0 0.00 0.00 0.00 82 1013.2
20260905140630 81 33 0.0 0.0 0.00 0.00 0.00 85 1013.3
20260905135641 80 35 0.0 0.0 0.00 0.00 0.00 87 1013.3
20260905134618 79 34 0.0 0.0 0.00 0.00 0.00 88 1013.3
20260905133611 79 34 0.0 0.9 0.00 0.00 0.00 89 1013.3
20260905132622 78 26 0.0 0.9 0.00 0.00 0.00 90 1013.3
20260905130516 76 27 0.0 0.9 0.00 0.00 0.00 89 1013.1
20260905125451 75 115 0.0 0.0 0.00 0.00 0.00 89 1013.1
20260905124426 74 115 0.0 0.0 0.00 0.00 0.00 89 1013.2
20260905123412 73 115 0.0 0.0 0.00 0.00 0.00 89 1013.2
20260905122424 73 115 0.0 0.0 0.00 0.00 0.00 89 1013.1
20260905120315 73 115 0.0 0.0 0.00 0.00 0.00 90 1012.7
20260905115249 73 115 0.0 0.0 0.00 0.00 0.00 90 1012.7
20260905114223 73 115 0.0 0.0 0.00 0.00 0.00 90 1012.5
20260905113242 72 115 0.0 0.0 0.00 0.00 0.00 90 1012.5
20260905112240 72 115 0.0 0.0 0.00 0.00 0.00 90 1012.3
20260905111257 72 115 0.0 0.0 0.00 0.00 0.00 90 1012.1
20260905110256 72 115 0.0 0.0 0.00 0.00 0.00 90 1012.0